Year,Month,Day,Hour,Minute,Value (Times are PST for temperature in C)
2011,04,11,00,00,5.30
2011,04,11,00,01,5.30
2011,04,11,00,02,5.30
2011,04,11,00,03,5.20
2011,04,11,00,04,5.20
2011,04,11,00,05,5.20
2011,04,11,00,06,5.20
2011,04,11,00,07,5.20
2011,04,11,00,08,5.20
2011,04,11,00,09,5.20
2011,04,11,00,10,5.20
2011,04,11,00,11,5.30
2011,04,11,00,12,5.30
2011,04,11,00,13,5.30
2011,04,11,00,14,5.30
2011,04,11,00,15,5.30
2011,04,11,00,16,5.50
2011,04,11,00,17,5.50
2011,04,11,00,18,5.60
2011,04,11,00,19,5.60
2011,04,11,00,20,5.60
2011,04,11,00,21,5.60
2011,04,11,00,22,5.60
2011,04,11,00,23,5.50
2011,04,11,00,24,5.50
2011,04,11,00,25,5.40
2011,04,11,00,26,5.40
2011,04,11,00,27,5.30
2011,04,11,00,28,5.30
2011,04,11,00,29,5.20
2011,04,11,00,30,5.10
2011,04,11,00,31,5.10
2011,04,11,00,32,5.00
2011,04,11,00,33,5.00
2011,04,11,00,34,5.00
2011,04,11,00,35,5.10
2011,04,11,00,36,5.30
2011,04,11,00,37,5.30
2011,04,11,00,38,5.30
2011,04,11,00,39,5.20
2011,04,11,00,40,5.20
2011,04,11,00,41,5.10
2011,04,11,00,42,5.10
2011,04,11,00,43,5.00
2011,04,11,00,44,4.90
2011,04,11,00,45,4.90
2011,04,11,00,46,5.00
2011,04,11,00,47,5.10
2011,04,11,00,48,5.20
2011,04,11,00,49,5.20
2011,04,11,00,50,5.20
2011,04,11,00,51,5.30
2011,04,11,00,52,5.30
2011,04,11,00,53,5.30
2011,04,11,00,54,5.30
2011,04,11,00,55,5.20
2011,04,11,00,56,5.10
2011,04,11,00,57,5.10
2011,04,11,00,58,5.00
2011,04,11,00,59,4.90
2011,04,11,01,00,4.90
2011,04,11,01,01,4.80
2011,04,11,01,02,4.70
2011,04,11,01,03,4.70
2011,04,11,01,04,4.70
2011,04,11,01,05,4.70
2011,04,11,01,06,4.70
2011,04,11,01,07,4.70
2011,04,11,01,08,4.70
2011,04,11,01,09,4.70
2011,04,11,01,10,4.60
2011,04,11,01,11,4.50
2011,04,11,01,12,4.50
2011,04,11,01,13,4.50
2011,04,11,01,14,4.40
2011,04,11,01,15,4.40
2011,04,11,01,16,4.40
2011,04,11,01,17,4.40
2011,04,11,01,18,4.30
2011,04,11,01,19,4.30
2011,04,11,01,20,4.30
2011,04,11,01,21,4.30
2011,04,11,01,22,4.30
2011,04,11,01,23,4.30
2011,04,11,01,24,4.30
2011,04,11,01,25,4.60
2011,04,11,01,26,4.70
2011,04,11,01,27,4.70
2011,04,11,01,28,4.80
2011,04,11,01,29,4.80
2011,04,11,01,30,4.80
2011,04,11,01,31,4.70
2011,04,11,01,32,4.70
2011,04,11,01,33,4.70
2011,04,11,01,34,4.60
2011,04,11,01,35,4.50
2011,04,11,01,36,4.50
2011,04,11,01,37,4.40
2011,04,11,01,38,4.40
2011,04,11,01,39,4.30
2011,04,11,01,40,4.30
2011,04,11,01,41,4.20
2011,04,11,01,42,4.20
2011,04,11,01,43,4.20
2011,04,11,01,44,4.10
2011,04,11,01,45,4.10
2011,04,11,01,46,4.10
2011,04,11,01,47,4.00
2011,04,11,01,48,4.00
2011,04,11,01,49,4.00
2011,04,11,01,50,3.90
2011,04,11,01,51,3.90
2011,04,11,01,52,3.90
2011,04,11,01,53,3.90
2011,04,11,01,54,3.80
2011,04,11,01,55,3.80
2011,04,11,01,56,3.80
2011,04,11,01,57,3.80
2011,04,11,01,58,3.80
2011,04,11,01,59,3.80
2011,04,11,02,00,3.80
2011,04,11,02,01,3.80
2011,04,11,02,02,3.80
2011,04,11,02,03,3.80
2011,04,11,02,04,3.80
2011,04,11,02,05,3.80
2011,04,11,02,06,3.80
2011,04,11,02,07,3.80
2011,04,11,02,08,3.80
2011,04,11,02,09,3.80
2011,04,11,02,10,3.80
2011,04,11,02,11,3.80
2011,04,11,02,12,3.80
2011,04,11,02,13,3.70
2011,04,11,02,14,3.70
2011,04,11,02,15,3.70
2011,04,11,02,16,3.70
2011,04,11,02,17,3.80
2011,04,11,02,18,3.70
2011,04,11,02,19,3.70
2011,04,11,02,20,3.70
2011,04,11,02,21,3.70
2011,04,11,02,22,3.70
2011,04,11,02,23,3.70
2011,04,11,02,24,3.70
2011,04,11,02,25,3.70
2011,04,11,02,26,3.70
2011,04,11,02,27,3.70
2011,04,11,02,28,3.70
2011,04,11,02,29,3.70
2011,04,11,02,30,3.70
2011,04,11,02,31,3.70
2011,04,11,02,32,3.70
2011,04,11,02,33,3.70
2011,04,11,02,34,3.60
2011,04,11,02,35,3.60
2011,04,11,02,36,3.60
2011,04,11,02,37,3.60
2011,04,11,02,38,3.60
2011,04,11,02,39,3.60
2011,04,11,02,40,3.60
2011,04,11,02,41,3.60
2011,04,11,02,42,3.60
2011,04,11,02,43,3.60
2011,04,11,02,44,3.60
2011,04,11,02,45,3.60
2011,04,11,02,46,3.60
2011,04,11,02,47,3.60
2011,04,11,02,48,3.60
2011,04,11,02,49,3.60
2011,04,11,02,50,3.70
2011,04,11,02,51,3.70
2011,04,11,02,52,3.70
2011,04,11,02,53,3.70
2011,04,11,02,54,3.80
2011,04,11,02,55,3.80
2011,04,11,02,56,3.80
2011,04,11,02,57,3.80
2011,04,11,02,58,3.80
2011,04,11,02,59,3.80
2011,04,11,03,00,3.80
2011,04,11,03,01,3.80
2011,04,11,03,02,3.90
2011,04,11,03,03,3.90
2011,04,11,03,04,3.90
2011,04,11,03,05,3.90
2011,04,11,03,06,3.90
2011,04,11,03,07,3.90
2011,04,11,03,08,3.90
2011,04,11,03,09,3.90
2011,04,11,03,10,3.90
2011,04,11,03,11,3.80
2011,04,11,03,12,3.80
2011,04,11,03,13,3.80
2011,04,11,03,14,3.80
2011,04,11,03,15,3.80
2011,04,11,03,16,3.70
2011,04,11,03,17,3.70
2011,04,11,03,18,3.70
2011,04,11,03,19,3.60
2011,04,11,03,20,3.60
2011,04,11,03,21,3.50
2011,04,11,03,22,3.50
2011,04,11,03,23,3.50
2011,04,11,03,24,3.50
2011,04,11,03,25,3.40
2011,04,11,03,26,3.40
2011,04,11,03,27,3.40
2011,04,11,03,28,3.40
2011,04,11,03,29,3.40
2011,04,11,03,30,3.40
2011,04,11,03,31,3.40
2011,04,11,03,32,3.40
2011,04,11,03,33,3.40
2011,04,11,03,34,3.40
2011,04,11,03,35,3.40
2011,04,11,03,36,3.40
2011,04,11,03,37,3.40
2011,04,11,03,38,3.30
2011,04,11,03,39,3.30
2011,04,11,03,40,3.30
2011,04,11,03,41,3.30
2011,04,11,03,42,3.30
2011,04,11,03,43,3.30
2011,04,11,03,44,3.30
2011,04,11,03,45,3.30
2011,04,11,03,46,3.30
2011,04,11,03,47,3.30
2011,04,11,03,48,3.30
2011,04,11,03,49,3.40
2011,04,11,03,50,3.40
2011,04,11,03,51,3.40
2011,04,11,03,52,3.40
2011,04,11,03,53,3.30
2011,04,11,03,54,3.30
2011,04,11,03,55,3.30
2011,04,11,03,56,3.30
2011,04,11,03,57,3.30
2011,04,11,03,58,3.30
2011,04,11,03,59,3.30
2011,04,11,04,00,3.30
2011,04,11,04,01,3.30
2011,04,11,04,02,3.30
2011,04,11,04,03,3.30
2011,04,11,04,04,3.30
2011,04,11,04,05,3.30
2011,04,11,04,06,3.20
2011,04,11,04,07,3.20
2011,04,11,04,08,3.20
2011,04,11,04,09,3.20
2011,04,11,04,10,3.20
2011,04,11,04,11,3.10
2011,04,11,04,12,3.10
2011,04,11,04,13,3.10
2011,04,11,04,14,3.10
2011,04,11,04,15,3.10
2011,04,11,04,16,3.10
2011,04,11,04,17,3.10
2011,04,11,04,18,3.00
2011,04,11,04,19,3.00
2011,04,11,04,20,3.00
2011,04,11,04,21,3.00
2011,04,11,04,22,3.00
2011,04,11,04,23,3.00
2011,04,11,04,24,3.00
2011,04,11,04,25,3.00
2011,04,11,04,26,3.00
2011,04,11,04,27,3.00
2011,04,11,04,28,3.00
2011,04,11,04,29,3.00
2011,04,11,04,30,3.00
2011,04,11,04,31,3.00
2011,04,11,04,32,3.00
2011,04,11,04,33,2.90
2011,04,11,04,34,2.90
2011,04,11,04,35,2.90
2011,04,11,04,36,2.90
2011,04,11,04,37,2.90
2011,04,11,04,38,3.00
2011,04,11,04,39,3.00
2011,04,11,04,40,3.00
2011,04,11,04,41,3.00
2011,04,11,04,42,3.10
2011,04,11,04,43,3.10
2011,04,11,04,44,3.10
2011,04,11,04,45,3.10
2011,04,11,04,46,3.10
2011,04,11,04,47,3.10
2011,04,11,04,48,3.10
2011,04,11,04,49,3.10
2011,04,11,04,50,3.10
2011,04,11,04,51,3.10
2011,04,11,04,52,3.10
2011,04,11,04,53,3.00
2011,04,11,04,54,3.00
2011,04,11,04,55,3.00
2011,04,11,04,56,3.00
2011,04,11,04,57,3.00
2011,04,11,04,58,3.00
2011,04,11,04,59,3.00
2011,04,11,05,00,3.00
2011,04,11,05,01,3.00
2011,04,11,05,02,3.00
2011,04,11,05,03,3.00
2011,04,11,05,04,3.00
2011,04,11,05,05,3.00
2011,04,11,05,06,2.90
2011,04,11,05,07,2.90
2011,04,11,05,08,2.90
2011,04,11,05,09,2.90
2011,04,11,05,10,2.90
2011,04,11,05,11,2.90
2011,04,11,05,12,2.90
2011,04,11,05,13,2.90
2011,04,11,05,14,2.90
2011,04,11,05,15,2.90
2011,04,11,05,16,2.90
2011,04,11,05,17,2.90
2011,04,11,05,18,2.90
2011,04,11,05,19,2.90
2011,04,11,05,20,2.90
2011,04,11,05,21,2.90
2011,04,11,05,22,2.90
2011,04,11,05,23,2.90
2011,04,11,05,24,2.90
2011,04,11,05,25,2.90
2011,04,11,05,26,2.80
2011,04,11,05,27,2.90
2011,04,11,05,28,2.90
2011,04,11,05,29,2.90
2011,04,11,05,30,2.90
2011,04,11,05,31,2.90
2011,04,11,05,32,2.90
2011,04,11,05,33,2.90
2011,04,11,05,34,2.90
2011,04,11,05,35,2.90
2011,04,11,05,36,2.90
2011,04,11,05,37,2.90
2011,04,11,05,38,2.90
2011,04,11,05,39,2.90
2011,04,11,05,40,2.80
2011,04,11,05,41,2.80
2011,04,11,05,42,2.80
2011,04,11,05,43,2.80
2011,04,11,05,44,2.80
2011,04,11,05,45,2.80
2011,04,11,05,46,2.80
2011,04,11,05,47,2.80
2011,04,11,05,48,2.80
2011,04,11,05,49,2.80
2011,04,11,05,50,2.80
2011,04,11,05,51,2.80
2011,04,11,05,52,2.80
2011,04,11,05,53,2.80
2011,04,11,05,54,2.80
2011,04,11,05,55,2.80
2011,04,11,05,56,2.80
2011,04,11,05,57,2.80
2011,04,11,05,58,2.80
2011,04,11,05,59,2.80
2011,04,11,06,00,2.80
2011,04,11,06,01,2.80
2011,04,11,06,02,2.80
2011,04,11,06,03,2.80
2011,04,11,06,04,2.80
2011,04,11,06,05,2.80
2011,04,11,06,06,2.80
2011,04,11,06,07,2.80
2011,04,11,06,08,2.80
2011,04,11,06,09,2.80
2011,04,11,06,10,2.80
2011,04,11,06,11,2.80
2011,04,11,06,12,2.80
2011,04,11,06,13,2.80
2011,04,11,06,14,2.80
2011,04,11,06,15,2.80
2011,04,11,06,16,2.80
2011,04,11,06,17,2.80
2011,04,11,06,18,2.80
2011,04,11,06,19,2.80
2011,04,11,06,20,2.80
2011,04,11,06,21,2.80
2011,04,11,06,22,2.80
2011,04,11,06,23,2.70
2011,04,11,06,24,2.70
2011,04,11,06,25,2.70
2011,04,11,06,26,2.70
2011,04,11,06,27,2.70
2011,04,11,06,28,2.70
2011,04,11,06,29,2.60
2011,04,11,06,30,2.60
2011,04,11,06,31,2.60
2011,04,11,06,32,2.60
2011,04,11,06,33,2.60
2011,04,11,06,34,2.60
2011,04,11,06,35,2.60
2011,04,11,06,36,2.60
2011,04,11,06,37,2.60
2011,04,11,06,38,2.50
2011,04,11,06,39,2.50
2011,04,11,06,40,2.50
2011,04,11,06,41,2.50
2011,04,11,06,42,2.50
2011,04,11,06,43,2.50
2011,04,11,06,44,2.50
2011,04,11,06,45,2.50
2011,04,11,06,46,2.50
2011,04,11,06,47,2.50
2011,04,11,06,48,2.50
2011,04,11,06,49,2.50
2011,04,11,06,50,2.50
2011,04,11,06,51,2.60
2011,04,11,06,52,2.60
2011,04,11,06,53,2.60
2011,04,11,06,54,2.60
2011,04,11,06,55,2.60
2011,04,11,06,56,2.60
2011,04,11,06,57,2.60
2011,04,11,06,58,2.60
2011,04,11,06,59,2.60
2011,04,11,07,00,2.60
2011,04,11,07,01,2.70
2011,04,11,07,02,2.70
2011,04,11,07,03,2.70
2011,04,11,07,04,2.70
2011,04,11,07,05,2.70
2011,04,11,07,06,2.70
2011,04,11,07,07,2.70
2011,04,11,07,08,2.70
2011,04,11,07,09,2.80
2011,04,11,07,10,2.80
2011,04,11,07,11,2.80
2011,04,11,07,12,2.80
2011,04,11,07,13,2.80
2011,04,11,07,14,2.80
2011,04,11,07,15,2.80
2011,04,11,07,16,2.80
2011,04,11,07,17,2.80
2011,04,11,07,18,2.90
2011,04,11,07,19,2.90
2011,04,11,07,20,2.90
2011,04,11,07,21,2.90
2011,04,11,07,22,2.90
2011,04,11,07,23,2.90
2011,04,11,07,24,2.90
2011,04,11,07,25,2.90
2011,04,11,07,26,2.90
2011,04,11,07,27,2.90
2011,04,11,07,28,2.90
2011,04,11,07,29,3.00
2011,04,11,07,30,3.00
2011,04,11,07,31,3.00
2011,04,11,07,32,3.00
2011,04,11,07,33,3.00
2011,04,11,07,34,3.00
2011,04,11,07,35,3.10
2011,04,11,07,36,3.10
2011,04,11,07,37,3.10
2011,04,11,07,38,3.10
2011,04,11,07,39,3.10
2011,04,11,07,40,3.10
2011,04,11,07,41,3.10
2011,04,11,07,42,3.20
2011,04,11,07,43,3.20
2011,04,11,07,44,3.20
2011,04,11,07,45,3.20
2011,04,11,07,46,3.30
2011,04,11,07,47,3.30
2011,04,11,07,48,3.30
2011,04,11,07,49,3.30
2011,04,11,07,50,3.30
2011,04,11,07,51,3.30
2011,04,11,07,52,3.40
2011,04,11,07,53,3.40
2011,04,11,07,54,3.40
2011,04,11,07,55,3.40
2011,04,11,07,56,3.50
2011,04,11,07,57,3.50
2011,04,11,07,58,3.60
2011,04,11,07,59,3.60
2011,04,11,08,00,3.60
2011,04,11,08,01,3.70
2011,04,11,08,02,3.70
2011,04,11,08,03,3.70
2011,04,11,08,04,3.80
2011,04,11,08,05,3.80
2011,04,11,08,06,3.80
2011,04,11,08,07,3.90
2011,04,11,08,08,4.00
2011,04,11,08,09,4.10
2011,04,11,08,10,4.10
2011,04,11,08,11,4.10
2011,04,11,08,12,4.20
2011,04,11,08,13,4.20
2011,04,11,08,14,4.30
2011,04,11,08,15,4.40
2011,04,11,08,16,4.50
2011,04,11,08,17,4.60
2011,04,11,08,18,4.70
2011,04,11,08,19,4.80
2011,04,11,08,20,4.90
2011,04,11,08,21,5.00
2011,04,11,08,22,5.10
2011,04,11,08,23,5.20
2011,04,11,08,24,5.30
2011,04,11,08,25,5.40
2011,04,11,08,26,5.50
2011,04,11,08,27,5.50
2011,04,11,08,28,5.60
2011,04,11,08,29,5.70
2011,04,11,08,30,5.90
2011,04,11,08,31,6.00
2011,04,11,08,32,6.00
2011,04,11,08,33,6.20
2011,04,11,08,34,6.30
2011,04,11,08,35,6.40
2011,04,11,08,36,6.60
2011,04,11,08,37,6.70
2011,04,11,08,38,6.80
2011,04,11,08,39,6.90
2011,04,11,08,40,7.00
2011,04,11,08,41,7.00
2011,04,11,08,42,7.10
2011,04,11,08,43,7.20
2011,04,11,08,44,7.20
2011,04,11,08,45,7.30
2011,04,11,08,46,7.30
2011,04,11,08,47,7.40
2011,04,11,08,48,7.50
2011,04,11,08,49,7.50
2011,04,11,08,50,7.60
2011,04,11,08,51,7.60
2011,04,11,08,52,7.70
2011,04,11,08,53,7.70
2011,04,11,08,54,7.70
2011,04,11,08,55,7.60
2011,04,11,08,56,7.60
2011,04,11,08,57,7.60
2011,04,11,08,58,7.60
2011,04,11,08,59,7.70
2011,04,11,09,00,7.70
2011,04,11,09,01,7.80
2011,04,11,09,02,7.80
2011,04,11,09,03,7.90
2011,04,11,09,04,7.90
2011,04,11,09,05,7.90
2011,04,11,09,06,7.90
2011,04,11,09,07,7.80
2011,04,11,09,08,7.80
2011,04,11,09,09,7.80
2011,04,11,09,10,7.70
2011,04,11,09,11,7.60
2011,04,11,09,12,7.60
2011,04,11,09,13,7.60
2011,04,11,09,14,7.70
2011,04,11,09,15,7.70
2011,04,11,09,16,7.70
2011,04,11,09,17,7.70
2011,04,11,09,18,7.80
2011,04,11,09,19,7.80
2011,04,11,09,20,7.80
2011,04,11,09,21,7.80
2011,04,11,09,22,7.80
2011,04,11,09,23,7.70
2011,04,11,09,24,7.70
2011,04,11,09,25,7.60
2011,04,11,09,26,7.60
2011,04,11,09,27,7.60
2011,04,11,09,28,7.60
2011,04,11,09,29,7.60
2011,04,11,09,30,7.60
2011,04,11,09,31,7.50
2011,04,11,09,32,7.60
2011,04,11,09,33,7.60
2011,04,11,09,34,7.70
2011,04,11,09,35,7.70
2011,04,11,09,36,7.60
2011,04,11,09,37,7.60
2011,04,11,09,38,7.60
2011,04,11,09,39,7.60
2011,04,11,09,40,7.60
2011,04,11,09,41,7.60
2011,04,11,09,42,7.60
2011,04,11,09,43,7.60
2011,04,11,09,44,7.60
2011,04,11,09,45,7.70
2011,04,11,09,46,7.70
2011,04,11,09,47,7.70
2011,04,11,09,48,7.80
2011,04,11,09,49,7.80
2011,04,11,09,50,7.80
2011,04,11,09,51,7.80
2011,04,11,09,52,7.90
2011,04,11,09,53,8.00
2011,04,11,09,54,8.00
2011,04,11,09,55,8.10
2011,04,11,09,56,8.20
2011,04,11,09,57,8.30
2011,04,11,09,58,8.40
2011,04,11,09,59,8.50
2011,04,11,10,00,8.40
2011,04,11,10,01,8.40
2011,04,11,10,02,8.40
2011,04,11,10,03,8.30
2011,04,11,10,04,8.30
2011,04,11,10,05,8.30
2011,04,11,10,06,8.20
2011,04,11,10,07,8.20
2011,04,11,10,08,8.20
2011,04,11,10,09,8.20
2011,04,11,10,10,8.20
2011,04,11,10,11,8.20
2011,04,11,10,12,8.20
2011,04,11,10,13,8.20
2011,04,11,10,14,8.20
2011,04,11,10,15,8.20
2011,04,11,10,16,8.20
2011,04,11,10,17,8.20
2011,04,11,10,18,8.20
2011,04,11,10,19,8.20
2011,04,11,10,20,8.30
2011,04,11,10,21,8.30
2011,04,11,10,22,8.30
2011,04,11,10,23,8.40
2011,04,11,10,24,8.40
2011,04,11,10,25,8.40
2011,04,11,10,26,8.40
2011,04,11,10,27,8.40
2011,04,11,10,28,8.40
2011,04,11,10,29,8.40
2011,04,11,10,30,8.40
2011,04,11,10,31,8.40
2011,04,11,10,32,8.40
2011,04,11,10,33,8.40
2011,04,11,10,34,8.40
2011,04,11,10,35,8.30
2011,04,11,10,36,8.30
2011,04,11,10,37,8.30
2011,04,11,10,38,8.30
2011,04,11,10,39,8.30
2011,04,11,10,40,8.30
2011,04,11,10,41,8.30
2011,04,11,10,42,8.40
2011,04,11,10,43,8.40
2011,04,11,10,44,8.40
2011,04,11,10,45,8.40
2011,04,11,10,46,8.40
2011,04,11,10,47,8.50
2011,04,11,10,48,8.50
2011,04,11,10,49,8.50
2011,04,11,10,50,8.50
2011,04,11,10,51,8.50
2011,04,11,10,52,8.60
2011,04,11,10,53,8.60
2011,04,11,10,54,8.60
2011,04,11,10,55,8.60
2011,04,11,10,56,8.60
2011,04,11,10,57,8.60
2011,04,11,10,58,8.60
2011,04,11,10,59,8.60
2011,04,11,11,00,8.60
2011,04,11,11,01,8.70
2011,04,11,11,02,8.70
2011,04,11,11,03,8.70
2011,04,11,11,04,8.70
2011,04,11,11,05,8.70
2011,04,11,11,06,8.70
2011,04,11,11,07,8.70
2011,04,11,11,08,8.60
2011,04,11,11,09,8.60
2011,04,11,11,10,8.50
2011,04,11,11,11,8.50
2011,04,11,11,12,8.40
2011,04,11,11,13,8.40
2011,04,11,11,14,8.30
2011,04,11,11,15,8.30
2011,04,11,11,16,8.30
2011,04,11,11,17,8.30
2011,04,11,11,18,8.30
2011,04,11,11,19,8.30
2011,04,11,11,20,8.20
2011,04,11,11,21,8.10
2011,04,11,11,22,8.10
2011,04,11,11,23,8.10
2011,04,11,11,24,8.10
2011,04,11,11,25,8.10
2011,04,11,11,26,8.00
2011,04,11,11,27,7.90
2011,04,11,11,28,7.90
2011,04,11,11,29,7.90
2011,04,11,11,30,7.90
2011,04,11,11,31,8.00
2011,04,11,11,32,8.20
2011,04,11,11,33,8.40
2011,04,11,11,34,8.50
2011,04,11,11,35,8.60
2011,04,11,11,36,8.70
2011,04,11,11,37,8.80
2011,04,11,11,38,8.80
2011,04,11,11,39,8.90
2011,04,11,11,40,9.00
2011,04,11,11,41,9.10
2011,04,11,11,42,9.10
2011,04,11,11,43,9.20
2011,04,11,11,44,9.20
2011,04,11,11,45,9.10
2011,04,11,11,46,9.10
2011,04,11,11,47,9.10
2011,04,11,11,48,9.20
2011,04,11,11,49,9.20
2011,04,11,11,50,9.20
2011,04,11,11,51,9.30
2011,04,11,11,52,9.30
2011,04,11,11,53,9.40
2011,04,11,11,54,9.50
2011,04,11,11,55,9.50
2011,04,11,11,56,9.60
2011,04,11,11,57,9.70
2011,04,11,11,58,9.80
2011,04,11,11,59,9.80
2011,04,11,12,00,9.80
2011,04,11,12,01,9.80
2011,04,11,12,02,9.80
2011,04,11,12,03,9.80
2011,04,11,12,04,9.80
2011,04,11,12,05,9.70
2011,04,11,12,06,9.60
2011,04,11,12,07,9.60
2011,04,11,12,08,9.60
2011,04,11,12,09,9.60
2011,04,11,12,10,9.70
2011,04,11,12,11,9.80
2011,04,11,12,12,9.90
2011,04,11,12,13,9.90
2011,04,11,12,14,10.00
2011,04,11,12,15,10.10
2011,04,11,12,16,10.10
2011,04,11,12,17,10.10
2011,04,11,12,18,10.10
2011,04,11,12,19,10.00
2011,04,11,12,20,9.90
2011,04,11,12,21,9.80
2011,04,11,12,22,9.80
2011,04,11,12,23,9.70
2011,04,11,12,24,9.70
2011,04,11,12,25,9.80
2011,04,11,12,26,9.80
2011,04,11,12,27,9.80
2011,04,11,12,28,10.00
2011,04,11,12,29,10.10
2011,04,11,12,30,10.10
2011,04,11,12,31,10.20
2011,04,11,12,32,10.20
2011,04,11,12,33,10.20
2011,04,11,12,34,10.20
2011,04,11,12,35,10.30
2011,04,11,12,36,10.40
2011,04,11,12,37,10.50
2011,04,11,12,38,10.60
2011,04,11,12,39,10.70
2011,04,11,12,40,10.80
2011,04,11,12,41,10.90
2011,04,11,12,42,11.00
2011,04,11,12,43,11.00
2011,04,11,12,44,11.00
2011,04,11,12,45,10.90
2011,04,11,12,46,10.70
2011,04,11,12,47,10.50
2011,04,11,12,48,10.40
2011,04,11,12,49,10.40
2011,04,11,12,50,10.50
2011,04,11,12,51,10.40
2011,04,11,12,52,10.30
2011,04,11,12,53,10.30
2011,04,11,12,54,10.30
2011,04,11,12,55,10.20
2011,04,11,12,56,10.10
2011,04,11,12,57,10.10
2011,04,11,12,58,10.10
2011,04,11,12,59,10.10
2011,04,11,13,00,10.20
2011,04,11,13,01,10.30
2011,04,11,13,02,10.30
2011,04,11,13,03,10.40
2011,04,11,13,04,10.40
2011,04,11,13,05,10.40
2011,04,11,13,06,10.40
2011,04,11,13,07,10.40
2011,04,11,13,08,10.40
2011,04,11,13,09,10.30
2011,04,11,13,10,10.30
2011,04,11,13,11,10.30
2011,04,11,13,12,10.30
2011,04,11,13,13,10.30
2011,04,11,13,14,10.20
2011,04,11,13,15,10.10
2011,04,11,13,16,10.10
2011,04,11,13,17,10.20
2011,04,11,13,18,10.20
2011,04,11,13,19,10.30
2011,04,11,13,20,10.40
2011,04,11,13,21,10.40
2011,04,11,13,22,10.50
2011,04,11,13,23,10.50
2011,04,11,13,24,10.40
2011,04,11,13,25,10.40
2011,04,11,13,26,10.30
2011,04,11,13,27,10.30
2011,04,11,13,28,10.30
2011,04,11,13,29,10.30
2011,04,11,13,30,10.30
2011,04,11,13,31,10.30
2011,04,11,13,32,10.20
2011,04,11,13,33,10.20
2011,04,11,13,34,10.10
2011,04,11,13,35,10.00
2011,04,11,13,36,10.00
2011,04,11,13,37,9.80
2011,04,11,13,38,9.70
2011,04,11,13,39,9.50
2011,04,11,13,40,9.50
2011,04,11,13,41,9.40
2011,04,11,13,42,9.40
2011,04,11,13,43,9.40
2011,04,11,13,44,9.40
2011,04,11,13,45,9.40
2011,04,11,13,46,9.40
2011,04,11,13,47,9.40
2011,04,11,13,48,9.50
2011,04,11,13,49,9.50
2011,04,11,13,50,9.60
2011,04,11,13,51,9.70
2011,04,11,13,52,9.70
2011,04,11,13,53,9.80
2011,04,11,13,54,9.80
2011,04,11,13,55,9.90
2011,04,11,13,56,10.00
2011,04,11,13,57,10.10
2011,04,11,13,58,10.10
2011,04,11,13,59,10.10
2011,04,11,14,00,10.10
2011,04,11,14,01,10.20
2011,04,11,14,02,10.20
2011,04,11,14,03,10.30
2011,04,11,14,04,10.40
2011,04,11,14,05,10.50
2011,04,11,14,06,10.60
2011,04,11,14,07,10.60
2011,04,11,14,08,10.60
2011,04,11,14,09,10.60
2011,04,11,14,10,10.70
2011,04,11,14,11,10.80
2011,04,11,14,12,10.80
2011,04,11,14,13,10.90
2011,04,11,14,14,11.00
2011,04,11,14,15,11.00
2011,04,11,14,16,11.10
2011,04,11,14,17,11.20
2011,04,11,14,18,11.20
2011,04,11,14,19,11.20
2011,04,11,14,20,11.20
2011,04,11,14,21,11.20
2011,04,11,14,22,11.20
2011,04,11,14,23,11.20
2011,04,11,14,24,11.20
2011,04,11,14,25,11.10
2011,04,11,14,26,11.00
2011,04,11,14,27,10.80
2011,04,11,14,28,10.70
2011,04,11,14,29,10.60
2011,04,11,14,30,10.50
2011,04,11,14,31,10.40
2011,04,11,14,32,10.40
2011,04,11,14,33,10.40
2011,04,11,14,34,10.40
2011,04,11,14,35,10.50
2011,04,11,14,36,10.50
2011,04,11,14,37,10.60
2011,04,11,14,38,10.60
2011,04,11,14,39,10.70
2011,04,11,14,40,10.70
2011,04,11,14,41,10.80
2011,04,11,14,42,10.80
2011,04,11,14,43,10.90
2011,04,11,14,44,11.00
2011,04,11,14,45,11.00
2011,04,11,14,46,10.90
2011,04,11,14,47,10.80
2011,04,11,14,48,10.80
2011,04,11,14,49,10.80
2011,04,11,14,50,10.80
2011,04,11,14,51,10.70
2011,04,11,14,52,10.70
2011,04,11,14,53,10.70
2011,04,11,14,54,10.70
2011,04,11,14,55,10.70
2011,04,11,14,56,10.70
2011,04,11,14,57,10.70
2011,04,11,14,58,10.60
2011,04,11,14,59,10.70
2011,04,11,15,00,10.70
2011,04,11,15,01,10.80
2011,04,11,15,02,10.80
2011,04,11,15,03,10.90
2011,04,11,15,04,10.90
2011,04,11,15,05,11.00
2011,04,11,15,06,11.00
2011,04,11,15,07,10.80
2011,04,11,15,08,10.80
2011,04,11,15,09,10.70
2011,04,11,15,10,10.70
2011,04,11,15,11,10.70
2011,04,11,15,12,10.70
2011,04,11,15,13,10.60
2011,04,11,15,14,10.40
2011,04,11,15,15,10.30
2011,04,11,15,16,10.20
2011,04,11,15,17,10.10
2011,04,11,15,18,10.00
2011,04,11,15,19,10.00
2011,04,11,15,20,9.90
2011,04,11,15,21,9.90
2011,04,11,15,22,9.90
2011,04,11,15,23,9.90
2011,04,11,15,24,9.90
2011,04,11,15,25,9.90
2011,04,11,15,26,9.90
2011,04,11,15,27,9.90
2011,04,11,15,28,9.90
2011,04,11,15,29,9.90
2011,04,11,15,30,9.80
2011,04,11,15,31,9.70
2011,04,11,15,32,9.70
2011,04,11,15,33,9.60
2011,04,11,15,34,9.60
2011,04,11,15,35,9.50
2011,04,11,15,36,9.40
2011,04,11,15,37,9.40
2011,04,11,15,38,9.40
2011,04,11,15,39,9.40
2011,04,11,15,40,9.40
2011,04,11,15,41,9.40
2011,04,11,15,42,9.50
2011,04,11,15,43,9.50
2011,04,11,15,44,9.60
2011,04,11,15,45,9.60
2011,04,11,15,46,9.60
2011,04,11,15,47,9.70
2011,04,11,15,48,9.70
2011,04,11,15,49,9.80
2011,04,11,15,50,9.80
2011,04,11,15,51,9.80
2011,04,11,15,52,9.80
2011,04,11,15,53,9.90
2011,04,11,15,54,9.90
2011,04,11,15,55,10.00
2011,04,11,15,56,10.10
2011,04,11,15,57,10.10
2011,04,11,15,58,10.10
2011,04,11,15,59,10.10
2011,04,11,16,00,10.20
2011,04,11,16,01,10.20
2011,04,11,16,02,10.30
2011,04,11,16,03,10.30
2011,04,11,16,04,10.30
2011,04,11,16,05,10.40
2011,04,11,16,06,10.40
2011,04,11,16,07,10.40
2011,04,11,16,08,10.30
2011,04,11,16,09,10.30
2011,04,11,16,10,10.40
2011,04,11,16,11,10.40
2011,04,11,16,12,10.40
2011,04,11,16,13,10.40
2011,04,11,16,14,10.40
2011,04,11,16,15,10.40
2011,04,11,16,16,10.30
2011,04,11,16,17,10.20
2011,04,11,16,18,10.20
2011,04,11,16,19,10.20
2011,04,11,16,20,10.20
2011,04,11,16,21,10.30
2011,04,11,16,22,10.30
2011,04,11,16,23,10.30
2011,04,11,16,24,10.30
2011,04,11,16,25,10.30
2011,04,11,16,26,10.20
2011,04,11,16,27,10.30
2011,04,11,16,28,10.30
2011,04,11,16,29,10.30
2011,04,11,16,30,10.20
2011,04,11,16,31,10.20
2011,04,11,16,32,10.20
2011,04,11,16,33,10.20
2011,04,11,16,34,10.30
2011,04,11,16,35,10.30
2011,04,11,16,36,10.40
2011,04,11,16,37,10.40
2011,04,11,16,38,10.40
2011,04,11,16,39,10.40
2011,04,11,16,40,10.30
2011,04,11,16,41,10.20
2011,04,11,16,42,10.20
2011,04,11,16,43,10.20
2011,04,11,16,44,10.20
2011,04,11,16,45,10.20
2011,04,11,16,46,10.20
2011,04,11,16,47,10.30
2011,04,11,16,48,10.30
2011,04,11,16,49,10.30
2011,04,11,16,50,10.30
2011,04,11,16,51,10.30
2011,04,11,16,52,10.20
2011,04,11,16,53,10.20
2011,04,11,16,54,10.20
2011,04,11,16,55,10.20
2011,04,11,16,56,10.20
2011,04,11,16,57,10.30
2011,04,11,16,58,10.30
2011,04,11,16,59,10.40
2011,04,11,17,00,10.50
2011,04,11,17,01,10.50
2011,04,11,17,02,10.60
2011,04,11,17,03,10.50
2011,04,11,17,04,10.50
2011,04,11,17,05,10.50
2011,04,11,17,06,10.50
2011,04,11,17,07,10.60
2011,04,11,17,08,10.60
2011,04,11,17,09,10.60
2011,04,11,17,10,10.60
2011,04,11,17,11,10.60
2011,04,11,17,12,10.70
2011,04,11,17,13,10.70
2011,04,11,17,14,10.70
2011,04,11,17,15,10.70
2011,04,11,17,16,10.60
2011,04,11,17,17,10.60
2011,04,11,17,18,10.50
2011,04,11,17,19,10.40
2011,04,11,17,20,10.30
2011,04,11,17,21,10.20
2011,04,11,17,22,10.20
2011,04,11,17,23,10.10
2011,04,11,17,24,10.10
2011,04,11,17,25,10.00
2011,04,11,17,26,9.90
2011,04,11,17,27,9.90
2011,04,11,17,28,9.80
2011,04,11,17,29,9.80
2011,04,11,17,30,9.80
2011,04,11,17,31,9.80
2011,04,11,17,32,9.80
2011,04,11,17,33,9.80
2011,04,11,17,34,9.80
2011,04,11,17,35,9.80
2011,04,11,17,36,9.80
2011,04,11,17,37,9.80
2011,04,11,17,38,9.80
2011,04,11,17,39,9.80
2011,04,11,17,40,9.70
2011,04,11,17,41,9.70
2011,04,11,17,42,9.70
2011,04,11,17,43,9.60
2011,04,11,17,44,9.60
2011,04,11,17,45,9.60
2011,04,11,17,46,9.60
2011,04,11,17,47,9.60
2011,04,11,17,48,9.50
2011,04,11,17,49,9.50
2011,04,11,17,50,9.50
2011,04,11,17,51,9.40
2011,04,11,17,52,9.40
2011,04,11,17,53,9.30
2011,04,11,17,54,9.30
2011,04,11,17,55,9.20